,,PA_Meas_PMT16A,,PR_Meas_QMR101_102,,RH_Meas_QMH101,,SR_Meas_QMS101,,TA_Meas_QMH101,,GenWind,,GenWind,
time,status,PA,status,PR,status,RH,status,SR,status,TA,status,DirAvg,status,SpdAvg,
2011-10-21, 00:00:05,VALID,917.019,VALID,0,VALID,97.5264,VALID,0,VALID,18.9048,VALID,164,VALID,0.509766,
2011-10-21, 00:01:05,VALID,917.036,VALID,0,VALID,97.5492,VALID,0,VALID,18.8644,VALID,164,VALID,1.13984,
2011-10-21, 00:02:05,VALID,917.004,VALID,0,VALID,97.534,VALID,0,VALID,18.8254,VALID,164,VALID,1.02383,
2011-10-21, 00:03:05,VALID,916.969,VALID,0,VALID,97.5187,VALID,0,VALID,18.8254,VALID,164,VALID,0.434375,
2011-10-21, 00:04:05,VALID,917.002,VALID,0.2,VALID,97.5111,VALID,0,VALID,18.8254,VALID,157,VALID,0.690625,
2011-10-21, 00:05:05,VALID,916.949,VALID,0,VALID,97.534,VALID,0,VALID,18.785,VALID,157,VALID,0.505859,
2011-10-21, 00:06:05,VALID,916.953,VALID,0,VALID,97.5187,VALID,0,VALID,18.7864,VALID,157,VALID,0.897266,
2011-10-21, 00:07:05,VALID,916.93,VALID,0,VALID,97.5187,VALID,0,VALID,18.7655,VALID,157,VALID,0.666797,
2011-10-21, 00:08:05,VALID,916.932,VALID,0,VALID,97.5187,VALID,0,VALID,18.8059,VALID,145,VALID,0.666016,
2011-10-21, 00:09:05,VALID,916.909,VALID,0,VALID,97.5416,VALID,0,VALID,18.8059,VALID,102,VALID,1.01836,
2011-10-21, 00:10:05,VALID,916.903,VALID,0,VALID,97.534,VALID,0,VALID,18.7655,VALID,113,VALID,0.676953,
2011-10-21, 00:11:05,VALID,916.878,VALID,0,VALID,97.5264,VALID,0,VALID,18.7655,VALID,113,VALID,1.04414,
2011-10-21, 00:12:05,VALID,916.903,VALID,0,VALID,97.534,VALID,0,VALID,18.7669,VALID,113,VALID,1.02109,
2011-10-21, 00:13:05,VALID,916.894,VALID,0.2,VALID,97.5264,VALID,0,VALID,18.7864,VALID,126,VALID,0.986719,
2011-10-21, 00:14:05,VALID,916.913,VALID,0,VALID,97.5492,VALID,0,VALID,18.7864,VALID,166,VALID,0.634766,
2011-10-21, 00:15:05,VALID,916.9,VALID,0,VALID,97.5721,VALID,0,VALID,18.7864,VALID,144,VALID,1.15078,
2011-10-21, 00:16:05,VALID,916.912,VALID,0,VALID,97.5492,VALID,0,VALID,18.746,VALID,129,VALID,1.04297,
2011-10-21, 00:17:05,VALID,916.918,VALID,0,VALID,97.5264,VALID,0.107441,VALID,18.707,VALID,129,VALID,0.836719,
2011-10-21, 00:18:05,VALID,916.911,VALID,0,VALID,97.534,VALID,0,VALID,18.7474,VALID,132,VALID,0.401563,
2011-10-21, 00:19:05,VALID,916.905,VALID,0.2,VALID,97.5416,VALID,0,VALID,18.7265,VALID,131,VALID,0.433984,
2011-10-21, 00:20:05,VALID,916.927,VALID,0,VALID,97.5416,VALID,0,VALID,18.7474,VALID,131,VALID,0.777344,
2011-10-21, 00:21:05,VALID,916.902,VALID,0,VALID,97.5569,VALID,0,VALID,18.7279,VALID,131,VALID,0.789453,
2011-10-21, 00:22:05,VALID,916.964,VALID,0,VALID,97.5645,VALID,0,VALID,18.7279,VALID,131,VALID,0.772656,
2011-10-21, 00:23:05,VALID,916.933,VALID,0,VALID,97.5569,VALID,0,VALID,18.7265,VALID,125,VALID,0.6,
2011-10-21, 00:24:05,VALID,916.928,VALID,0,VALID,97.5569,VALID,0,VALID,18.7669,VALID,129,VALID,0.778906,
2011-10-21, 00:25:05,VALID,916.925,VALID,0,VALID,97.5721,VALID,0,VALID,18.7474,VALID,130,VALID,0.590234,
2011-10-21, 00:26:05,VALID,916.916,VALID,0,VALID,97.5873,VALID,0,VALID,18.7474,VALID,130,VALID,0.516016,
2011-10-21, 00:27:05,VALID,916.884,VALID,0,VALID,97.5797,VALID,0,VALID,18.7474,VALID,130,VALID,0.678906,
2011-10-21, 00:28:05,VALID,916.864,VALID,0,VALID,97.5645,VALID,0,VALID,18.7669,VALID,130,VALID,0.685156,
2011-10-21, 00:29:05,VALID,916.85,VALID,0,VALID,97.595,VALID,0,VALID,18.7669,VALID,130,VALID,0.509766,
2011-10-21, 00:30:05,VALID,916.854,VALID,0.2,VALID,97.5569,VALID,0,VALID,18.7474,VALID,130,VALID,0.303516,
2011-10-21, 00:31:05,VALID,916.824,VALID,0,VALID,97.6026,VALID,0,VALID,18.7474,VALID,130,VALID,0.8125,
2011-10-21, 00:32:05,VALID,916.817,VALID,0,VALID,97.5873,VALID,0,VALID,18.7474,VALID,130,VALID,0.834766,
2011-10-21, 00:33:05,VALID,916.788,VALID,0,VALID,97.5721,VALID,0,VALID,18.7474,VALID,130,VALID,0.21875,
2011-10-21, 00:34:05,VALID,916.811,VALID,0,VALID,97.595,VALID,0,VALID,18.7279,VALID,130,VALID,0.675391,
2011-10-21, 00:35:05,VALID,916.801,VALID,0,VALID,97.6026,VALID,0,VALID,18.7279,VALID,130,VALID,0.655859,
2011-10-21, 00:36:05,VALID,916.798,VALID,0,VALID,97.5797,VALID,0,VALID,18.707,VALID,129,VALID,0.848047,
2011-10-21, 00:37:05,VALID,916.793,VALID,0,VALID,97.6026,VALID,0,VALID,18.7279,VALID,98,VALID,1.20352,
2011-10-21, 00:38:05,VALID,916.796,VALID,0,VALID,97.6102,VALID,0,VALID,18.7279,VALID,100,VALID,0.967578,
2011-10-21, 00:39:05,VALID,916.776,VALID,0,VALID,97.5721,VALID,0,VALID,18.7279,VALID,106,VALID,0.999609,
2011-10-21, 00:40:05,VALID,916.749,VALID,0,VALID,97.5721,VALID,0,VALID,18.7279,VALID,118,VALID,0.707031,
2011-10-21, 00:41:05,VALID,916.742,VALID,0,VALID,97.5873,VALID,0,VALID,18.7474,VALID,118,VALID,0.450781,
2011-10-21, 00:42:05,VALID,916.757,VALID,0,VALID,97.5873,VALID,0,VALID,18.7279,VALID,118,VALID,0.398438,
2011-10-21, 00:43:05,VALID,916.736,VALID,0,VALID,97.5873,VALID,0,VALID,18.7279,VALID,118,VALID,0.544922,
2011-10-21, 00:44:05,VALID,916.735,VALID,0,VALID,97.6178,VALID,0,VALID,18.7084,VALID,118,VALID,0.805469,
2011-10-21, 00:45:05,VALID,916.717,VALID,0,VALID,97.6102,VALID,0,VALID,18.7084,VALID,118,VALID,0.651172,
2011-10-21, 00:46:05,VALID,916.716,VALID,0,VALID,97.595,VALID,0.107441,VALID,18.707,VALID,118,VALID,0.697656,
2011-10-21, 00:47:05,VALID,916.707,VALID,0,VALID,97.6026,VALID,0,VALID,18.7279,VALID,118,VALID,0.508984,
2011-10-21, 00:48:05,VALID,916.665,VALID,0,VALID,97.595,VALID,0,VALID,18.7084,VALID,118,VALID,0.596875,
2011-10-21, 00:49:05,VALID,916.658,VALID,0.2,VALID,97.6178,VALID,0,VALID,18.7084,VALID,118,VALID,0.679297,
2011-10-21, 00:50:05,VALID,916.647,VALID,0,VALID,97.6102,VALID,0,VALID,18.7084,VALID,118,VALID,0.75625,
2011-10-21, 00:51:05,VALID,916.643,VALID,0,VALID,97.6026,VALID,0,VALID,18.7488,VALID,118,VALID,0.644531,
2011-10-21, 00:52:05,VALID,916.656,VALID,0,VALID,97.6026,VALID,0,VALID,18.7279,VALID,118,VALID,0.603906,
2011-10-21, 00:53:05,VALID,916.657,VALID,0,VALID,97.6178,VALID,0,VALID,18.7474,VALID,118,VALID,0.746484,
2011-10-21, 00:54:05,VALID,916.636,VALID,0,VALID,97.6255,VALID,0,VALID,18.7669,VALID,118,VALID,0.8625,
2011-10-21, 00:55:05,VALID,916.621,VALID,0,VALID,97.6178,VALID,0,VALID,18.7655,VALID,118,VALID,0.836328,
2011-10-21, 00:56:05,VALID,916.596,VALID,0,VALID,97.6255,VALID,0,VALID,18.7864,VALID,118,VALID,0.355469,
2011-10-21, 00:57:05,VALID,916.619,VALID,0,VALID,97.6178,VALID,0,VALID,18.8059,VALID,122,VALID,0.546875,
2011-10-21, 00:58:05,VALID,916.577,VALID,0,VALID,97.6331,VALID,0,VALID,18.8059,VALID,122,VALID,0.632813,
2011-10-21, 00:59:05,VALID,916.556,VALID,0,VALID,97.6255,VALID,0,VALID,18.8059,VALID,122,VALID,0.328906,
2011-10-21, 01:00:05,VALID,916.569,VALID,0.2,VALID,97.6255,VALID,0,VALID,18.8254,VALID,122,VALID,0.0359375,
2011-10-21, 01:01:05,VALID,916.542,VALID,0,VALID,97.6255,VALID,0,VALID,18.8059,VALID,122,VALID,0.569141,
2011-10-21, 01:02:05,VALID,916.539,VALID,0,VALID,97.6178,VALID,0,VALID,18.7864,VALID,122,VALID,0.275391,
2011-10-21, 01:03:05,VALID,916.488,VALID,0,VALID,97.6178,VALID,0,VALID,18.7864,VALID,122,VALID,0.688672,
2011-10-21, 01:04:05,VALID,916.518,VALID,0,VALID,97.6178,VALID,0,VALID,18.7669,VALID,123,VALID,0.639453,
2011-10-21, 01:05:05,VALID,916.509,VALID,0,VALID,97.6255,VALID,0,VALID,18.7669,VALID,123,VALID,0.192188,
2011-10-21, 01:06:05,VALID,916.527,VALID,0,VALID,97.6407,VALID,0,VALID,18.7669,VALID,123,VALID,0.3875,
2011-10-21, 01:07:05,VALID,916.527,VALID,0,VALID,97.6331,VALID,0,VALID,18.746,VALID,123,VALID,0.707812,
2011-10-21, 01:08:05,VALID,916.521,VALID,0.2,VALID,97.656,VALID,0,VALID,18.7279,VALID,123,VALID,0.818359,
2011-10-21, 01:09:05,VALID,916.498,VALID,0,VALID,97.6255,VALID,0,VALID,18.7279,VALID,123,VALID,0.846094,
2011-10-21, 01:10:05,VALID,916.501,VALID,0,VALID,97.6331,VALID,0,VALID,18.7279,VALID,123,VALID,0.682422,
2011-10-21, 01:11:05,VALID,916.493,VALID,0,VALID,97.6407,VALID,0,VALID,18.7488,VALID,123,VALID,0.963281,
2011-10-21, 01:12:05,VALID,916.484,VALID,0,VALID,97.6407,VALID,0,VALID,18.7279,VALID,123,VALID,0.6,
2011-10-21, 01:13:05,VALID,916.509,VALID,0,VALID,97.6407,VALID,0,VALID,18.7265,VALID,123,VALID,0.953906,
2011-10-21, 01:14:05,VALID,916.502,VALID,0,VALID,97.6255,VALID,0,VALID,18.7279,VALID,123,VALID,0.910937,
2011-10-21, 01:15:05,VALID,916.471,VALID,0,VALID,97.6407,VALID,0.107441,VALID,18.7474,VALID,123,VALID,0.630859,
2011-10-21, 01:16:05,VALID,916.465,VALID,0,VALID,97.6483,VALID,0,VALID,18.707,VALID,123,VALID,0.934375,
2011-10-21, 01:17:05,VALID,916.484,VALID,0,VALID,97.6483,VALID,0.107441,VALID,18.7279,VALID,123,VALID,1.13008,
2011-10-21, 01:18:05,VALID,916.459,VALID,0,VALID,97.6407,VALID,0,VALID,18.6875,VALID,123,VALID,0.610156,
2011-10-21, 01:19:05,VALID,916.473,VALID,0,VALID,97.6483,VALID,0,VALID,18.7084,VALID,123,VALID,0.930469,
2011-10-21, 01:20:05,VALID,916.433,VALID,0.2,VALID,97.6636,VALID,0,VALID,18.7279,VALID,123,VALID,0.763672,
2011-10-21, 01:21:05,VALID,916.458,VALID,0,VALID,97.6407,VALID,0,VALID,18.6889,VALID,123,VALID,0.846875,
2011-10-21, 01:22:05,VALID,916.44,VALID,0,VALID,97.6483,VALID,0,VALID,18.668,VALID,123,VALID,0.789063,
2011-10-21, 01:23:05,VALID,916.469,VALID,0,VALID,97.6483,VALID,0,VALID,18.6694,VALID,123,VALID,0.866406,
2011-10-21, 01:24:05,VALID,916.425,VALID,0,VALID,97.6483,VALID,0,VALID,18.6694,VALID,123,VALID,0.789844,
2011-10-21, 01:25:05,VALID,916.418,VALID,0,VALID,97.6483,VALID,0,VALID,18.6694,VALID,123,VALID,0.685156,
2011-10-21, 01:26:05,VALID,916.403,VALID,0,VALID,97.6636,VALID,0,VALID,18.6304,VALID,123,VALID,0.791016,
2011-10-21, 01:27:05,VALID,916.418,VALID,0,VALID,97.656,VALID,0,VALID,18.6694,VALID,123,VALID,0.501953,
2011-10-21, 01:28:05,VALID,916.408,VALID,0,VALID,97.6483,VALID,0,VALID,18.6499,VALID,123,VALID,0.395703,
2011-10-21, 01:29:05,VALID,916.414,VALID,0,VALID,97.6483,VALID,0,VALID,18.6499,VALID,123,VALID,0.521875,
2011-10-21, 01:30:05,VALID,916.389,VALID,0,VALID,97.6712,VALID,0,VALID,18.6499,VALID,123,VALID,0.830859,
2011-10-21, 01:31:05,VALID,916.369,VALID,0,VALID,97.6636,VALID,0,VALID,18.6694,VALID,123,VALID,0.758203,
2011-10-21, 01:32:05,VALID,916.326,VALID,0,VALID,97.656,VALID,0,VALID,18.7098,VALID,123,VALID,0.689844,
2011-10-21, 01:33:05,VALID,916.327,VALID,0,VALID,97.656,VALID,0,VALID,18.6694,VALID,123,VALID,0.671094,
2011-10-21, 01:34:05,VALID,916.298,VALID,0,VALID,97.6636,VALID,0,VALID,18.6304,VALID,123,VALID,0.680469,
2011-10-21, 01:35:05,VALID,916.309,VALID,0,VALID,97.6636,VALID,0,VALID,18.6304,VALID,123,VALID,0.476563,
2011-10-21, 01:36:05,VALID,916.288,VALID,0,VALID,97.656,VALID,0,VALID,18.6109,VALID,123,VALID,0.558984,
2011-10-21, 01:37:05,VALID,916.29,VALID,0,VALID,97.6407,VALID,0,VALID,18.6304,VALID,123,VALID,0.926953,
2011-10-21, 01:38:05,VALID,916.267,VALID,0.2,VALID,97.6712,VALID,0,VALID,18.6485,VALID,123,VALID,0.787109,
2011-10-21, 01:39:05,VALID,916.272,VALID,0,VALID,97.6636,VALID,0,VALID,18.6889,VALID,123,VALID,0.797266,
2011-10-21, 01:40:05,VALID,916.224,VALID,0,VALID,97.6636,VALID,0.107441,VALID,18.6694,VALID,123,VALID,0.533984,
2011-10-21, 01:41:05,VALID,916.228,VALID,0,VALID,97.6636,VALID,0,VALID,18.6694,VALID,123,VALID,0.437109,
2011-10-21, 01:42:05,VALID,916.225,VALID,0,VALID,97.6712,VALID,0,VALID,18.6889,VALID,123,VALID,0.292969,
2011-10-21, 01:43:05,VALID,916.207,VALID,0,VALID,97.6865,VALID,0,VALID,18.668,VALID,123,VALID,0.604297,
2011-10-21, 01:44:05,VALID,916.218,VALID,0,VALID,97.6712,VALID,0,VALID,18.6889,VALID,123,VALID,0.377344,
2011-10-21, 01:45:05,VALID,916.16,VALID,0,VALID,97.6712,VALID,0,VALID,18.7279,VALID,123,VALID,0.527344,
2011-10-21, 01:46:05,VALID,916.198,VALID,0,VALID,97.6712,VALID,0,VALID,18.7683,VALID,123,VALID,0.836719,
2011-10-21, 01:47:05,VALID,916.192,VALID,0,VALID,97.656,VALID,0,VALID,18.7084,VALID,123,VALID,0.845703,
2011-10-21, 01:48:05,VALID,916.17,VALID,0,VALID,97.6712,VALID,0,VALID,18.7084,VALID,123,VALID,0.740234,
2011-10-21, 01:49:05,VALID,916.185,VALID,0,VALID,97.6788,VALID,0,VALID,18.7293,VALID,123,VALID,0.645312,
2011-10-21, 01:50:05,VALID,916.158,VALID,0,VALID,97.6788,VALID,0,VALID,18.7084,VALID,123,VALID,0.772266,
2011-10-21, 01:51:05,VALID,916.135,VALID,0,VALID,97.6788,VALID,0,VALID,18.7279,VALID,123,VALID,0.404687,
2011-10-21, 01:52:05,VALID,916.137,VALID,0,VALID,97.6865,VALID,0,VALID,18.7279,VALID,123,VALID,0.563281,
2011-10-21, 01:53:05,VALID,916.103,VALID,0.2,VALID,97.6941,VALID,0,VALID,18.7683,VALID,123,VALID,0.706641,
2011-10-21, 01:54:05,VALID,916.109,VALID,0,VALID,97.6941,VALID,0,VALID,18.7279,VALID,123,VALID,0.782031,
2011-10-21, 01:55:04,VALID,916.142,VALID,0,VALID,97.6865,VALID,0,VALID,18.7293,VALID,123,VALID,0.611719,
2011-10-21, 01:56:04,VALID,916.125,VALID,0,VALID,97.6712,VALID,0,VALID,18.6694,VALID,123,VALID,0.675,
2011-10-21, 01:57:04,VALID,916.144,VALID,0,VALID,97.6712,VALID,0,VALID,18.6694,VALID,123,VALID,0.630469,
2011-10-21, 01:58:04,VALID,916.128,VALID,0,VALID,97.6788,VALID,0,VALID,18.6694,VALID,123,VALID,0.528516,
2011-10-21, 01:59:04,VALID,916.153,VALID,0,VALID,97.6788,VALID,0,VALID,18.6499,VALID,123,VALID,0.353906,
2011-10-21, 02:00:04,VALID,916.154,VALID,0,VALID,97.6788,VALID,0,VALID,18.6694,VALID,123,VALID,0.0539063,
2011-10-21, 02:01:04,VALID,916.159,VALID,0,VALID,97.6788,VALID,0,VALID,18.6889,VALID,123,VALID,0.178516,
2011-10-21, 02:02:04,VALID,916.161,VALID,0.2,VALID,97.6865,VALID,0,VALID,18.6694,VALID,123,VALID,0,
2011-10-21, 02:03:04,VALID,916.135,VALID,0,VALID,97.6712,VALID,0,VALID,18.6889,VALID,123,VALID,0.313281,
2011-10-21, 02:04:04,VALID,916.152,VALID,0,VALID,97.6712,VALID,0,VALID,18.7098,VALID,123,VALID,0.334766,
2011-10-21, 02:05:04,VALID,916.142,VALID,0,VALID,97.6712,VALID,0,VALID,18.6889,VALID,123,VALID,0.415234,
2011-10-21, 02:06:04,VALID,916.103,VALID,0,VALID,97.6788,VALID,0,VALID,18.6889,VALID,123,VALID,0.315234,
2011-10-21, 02:07:04,VALID,916.126,VALID,0,VALID,97.6788,VALID,0,VALID,18.7084,VALID,123,VALID,0.00117188,
2011-10-21, 02:08:04,VALID,916.123,VALID,0,VALID,97.7017,VALID,0,VALID,18.7084,VALID,123,VALID,0.220703,
2011-10-21, 02:09:04,VALID,916.125,VALID,0,VALID,97.6788,VALID,0,VALID,18.7293,VALID,123,VALID,0.651172,
2011-10-21, 02:10:04,VALID,916.136,VALID,0,VALID,97.7017,VALID,0,VALID,18.6889,VALID,123,VALID,0.422656,
2011-10-21, 02:11:04,VALID,916.131,VALID,0,VALID,97.7169,VALID,0,VALID,18.6889,VALID,123,VALID,0.258203,
2011-10-21, 02:12:04,VALID,916.12,VALID,0,VALID,97.7017,VALID,0,VALID,18.6694,VALID,123,VALID,0.127734,
2011-10-21, 02:13:04,VALID,916.127,VALID,0,VALID,97.7017,VALID,0,VALID,18.6499,VALID,123,VALID,0.206641,
2011-10-21, 02:14:04,VALID,916.158,VALID,0.2,VALID,97.6865,VALID,0,VALID,18.6694,VALID,123,VALID,0.366797,
2011-10-21, 02:15:04,VALID,916.109,VALID,0,VALID,97.6941,VALID,0,VALID,18.6708,VALID,123,VALID,0.173438,
2011-10-21, 02:16:04,VALID,916.117,VALID,0,VALID,97.6941,VALID,0,VALID,18.6499,VALID,123,VALID,0.103906,
2011-10-21, 02:17:04,VALID,916.119,VALID,0,VALID,97.7017,VALID,0,VALID,18.6694,VALID,123,VALID,0.0199219,
2011-10-21, 02:18:04,VALID,916.112,VALID,0,VALID,97.6941,VALID,0,VALID,18.7098,VALID,123,VALID,0.000390625,
2011-10-21, 02:19:04,VALID,916.109,VALID,0,VALID,97.7093,VALID,0,VALID,18.6708,VALID,123,VALID,0.251172,
2011-10-21, 02:20:04,VALID,916.123,VALID,0,VALID,97.6865,VALID,0,VALID,18.6499,VALID,123,VALID,0.226172,
2011-10-21, 02:21:04,VALID,916.117,VALID,0,VALID,97.7246,VALID,0,VALID,18.6694,VALID,123,VALID,0.00546875,
2011-10-21, 02:22:04,VALID,916.104,VALID,0,VALID,97.7169,VALID,0,VALID,18.6499,VALID,123,VALID,0,
2011-10-21, 02:23:04,VALID,916.122,VALID,0,VALID,97.7246,VALID,0,VALID,18.6304,VALID,123,VALID,0.241406,
2011-10-21, 02:24:04,VALID,916.089,VALID,0,VALID,97.7169,VALID,0,VALID,18.6304,VALID,123,VALID,0.518359,
2011-10-21, 02:25:04,VALID,916.118,VALID,0,VALID,97.7093,VALID,0,VALID,18.6513,VALID,123,VALID,0.560938,
2011-10-21, 02:26:04,VALID,916.101,VALID,0,VALID,97.7017,VALID,0,VALID,18.6109,VALID,123,VALID,0.4,
2011-10-21, 02:27:04,VALID,916.118,VALID,0.2,VALID,97.7093,VALID,0,VALID,18.6109,VALID,123,VALID,0.369531,
2011-10-21, 02:28:04,VALID,916.101,VALID,0,VALID,97.7093,VALID,0,VALID,18.6304,VALID,123,VALID,0.294531,
2011-10-21, 02:29:04,VALID,916.088,VALID,0,VALID,97.6865,VALID,0,VALID,18.6304,VALID,123,VALID,0.428125,
2011-10-21, 02:30:04,VALID,916.073,VALID,0,VALID,97.7246,VALID,0,VALID,18.6319,VALID,123,VALID,0.548828,
2011-10-21, 02:31:04,VALID,916.067,VALID,0,VALID,97.7246,VALID,0,VALID,18.5914,VALID,123,VALID,0.351563,
2011-10-21, 02:32:04,VALID,916.077,VALID,0,VALID,97.7246,VALID,0,VALID,18.5914,VALID,123,VALID,0.510547,
2011-10-21, 02:33:04,VALID,916.065,VALID,0,VALID,97.7169,VALID,0,VALID,18.6319,VALID,123,VALID,0.608203,
2011-10-21, 02:34:04,VALID,916.064,VALID,0,VALID,97.7322,VALID,0,VALID,18.5914,VALID,123,VALID,0.475781,
2011-10-21, 02:35:04,VALID,916.055,VALID,0,VALID,97.7093,VALID,0,VALID,18.6319,VALID,123,VALID,0.728906,
2011-10-21, 02:36:04,VALID,916.078,VALID,0,VALID,97.7246,VALID,0,VALID,18.6109,VALID,123,VALID,0.637109,
2011-10-21, 02:37:04,VALID,916.074,VALID,0,VALID,97.7169,VALID,0,VALID,18.6319,VALID,123,VALID,0.266406,
2011-10-21, 02:38:04,VALID,916.066,VALID,0,VALID,97.7169,VALID,0,VALID,18.6304,VALID,123,VALID,0.517187,
2011-10-21, 02:39:04,VALID,916.062,VALID,0,VALID,97.7246,VALID,0,VALID,18.6304,VALID,123,VALID,0.419141,
2011-10-21, 02:40:04,VALID,916.035,VALID,0.2,VALID,97.7093,VALID,0,VALID,18.6319,VALID,123,VALID,0.515625,
2011-10-21, 02:41:04,VALID,916.027,VALID,0,VALID,97.7093,VALID,0,VALID,18.6109,VALID,123,VALID,0.248828,
2011-10-21, 02:42:04,VALID,916.046,VALID,0,VALID,97.7322,VALID,0,VALID,18.6513,VALID,123,VALID,0.265234,
2011-10-21, 02:43:04,VALID,916.005,VALID,0,VALID,97.7322,VALID,0,VALID,18.6513,VALID,123,VALID,0.464844,
2011-10-21, 02:44:04,VALID,915.989,VALID,0,VALID,97.7246,VALID,0,VALID,18.6109,VALID,123,VALID,0.451953,
2011-10-21, 02:45:04,VALID,915.972,VALID,0,VALID,97.7169,VALID,0,VALID,18.6708,VALID,123,VALID,0.581641,
2011-10-21, 02:46:04,VALID,915.984,VALID,0,VALID,97.7322,VALID,0,VALID,18.6513,VALID,123,VALID,0.596484,
2011-10-21, 02:47:04,VALID,915.995,VALID,0,VALID,97.7322,VALID,0,VALID,18.6513,VALID,123,VALID,0.420312,
2011-10-21, 02:48:04,VALID,916.005,VALID,0,VALID,97.7246,VALID,0,VALID,18.6304,VALID,123,VALID,0.483594,
2011-10-21, 02:49:04,VALID,916.001,VALID,0,VALID,97.7322,VALID,0,VALID,18.6708,VALID,123,VALID,0.632031,
2011-10-21, 02:50:04,VALID,916.012,VALID,0.2,VALID,97.7398,VALID,0,VALID,18.6903,VALID,123,VALID,0.512891,
2011-10-21, 02:51:04,VALID,916,VALID,0,VALID,97.7398,VALID,0,VALID,18.6694,VALID,123,VALID,0.408984,
2011-10-21, 02:52:04,VALID,915.998,VALID,0,VALID,97.7322,VALID,0,VALID,18.7098,VALID,123,VALID,0.408594,
2011-10-21, 02:53:04,VALID,916.008,VALID,0,VALID,97.7398,VALID,0,VALID,18.6889,VALID,123,VALID,0.359375,
2011-10-21, 02:54:04,VALID,916.013,VALID,0,VALID,97.7398,VALID,0,VALID,18.7098,VALID,123,VALID,0.455078,
2011-10-21, 02:55:04,VALID,916.025,VALID,0,VALID,97.7398,VALID,0,VALID,18.6889,VALID,124,VALID,0.500781,
2011-10-21, 02:56:04,VALID,916.04,VALID,0,VALID,97.7474,VALID,0,VALID,18.6903,VALID,124,VALID,0.692969,
2011-10-21, 02:57:04,VALID,916.013,VALID,0,VALID,97.7246,VALID,0,VALID,18.6903,VALID,124,VALID,0.94375,
2011-10-21, 02:58:04,VALID,916.016,VALID,0,VALID,97.7398,VALID,0,VALID,18.6513,VALID,124,VALID,0.270312,
2011-10-21, 02:59:04,VALID,916.032,VALID,0,VALID,97.7474,VALID,0,VALID,18.6513,VALID,124,VALID,0.0449219,
2011-10-21, 03:00:04,VALID,916.026,VALID,0,VALID,97.7474,VALID,0,VALID,18.6304,VALID,124,VALID,0.617969,
2011-10-21, 03:01:04,VALID,915.999,VALID,0.2,VALID,97.7474,VALID,0,VALID,18.6109,VALID,124,VALID,0.314063,
2011-10-21, 03:02:04,VALID,916.003,VALID,0,VALID,97.7474,VALID,0,VALID,18.6304,VALID,124,VALID,0.275,
2011-10-21, 03:03:04,VALID,915.994,VALID,0,VALID,97.7398,VALID,0,VALID,18.6304,VALID,124,VALID,0.242969,
2011-10-21, 03:04:04,VALID,915.973,VALID,0,VALID,97.7246,VALID,0,VALID,18.6499,VALID,124,VALID,0,
2011-10-21, 03:05:04,VALID,915.996,VALID,0,VALID,97.7398,VALID,0,VALID,18.6304,VALID,124,VALID,0.0710938,
2011-10-21, 03:06:04,VALID,916.016,VALID,0,VALID,97.7474,VALID,0,VALID,18.6513,VALID,124,VALID,0.314063,
2011-10-21, 03:07:04,VALID,915.981,VALID,0,VALID,97.7551,VALID,0,VALID,18.6513,VALID,124,VALID,0.228906,
2011-10-21, 03:08:04,VALID,915.959,VALID,0,VALID,97.7551,VALID,0,VALID,18.6513,VALID,124,VALID,0.436328,
2011-10-21, 03:09:04,VALID,915.976,VALID,0,VALID,97.7627,VALID,0,VALID,18.6513,VALID,124,VALID,0.219141,
2011-10-21, 03:10:04,VALID,915.979,VALID,0,VALID,97.7627,VALID,0,VALID,18.6513,VALID,124,VALID,0.299609,
2011-10-21, 03:11:04,VALID,915.95,VALID,0,VALID,97.7474,VALID,0,VALID,18.6513,VALID,124,VALID,0.101172,
2011-10-21, 03:12:04,VALID,915.958,VALID,0,VALID,97.7322,VALID,0,VALID,18.6708,VALID,124,VALID,0.132813,
2011-10-21, 03:13:04,VALID,915.937,VALID,0,VALID,97.7627,VALID,0,VALID,18.6304,VALID,124,VALID,0.407422,
2011-10-21, 03:14:04,VALID,915.959,VALID,0,VALID,97.7551,VALID,0,VALID,18.6319,VALID,124,VALID,0.226563,
2011-10-21, 03:15:04,VALID,915.947,VALID,0,VALID,97.7551,VALID,0,VALID,18.6319,VALID,124,VALID,0.376953,
2011-10-21, 03:16:04,VALID,915.935,VALID,0.2,VALID,97.7627,VALID,0,VALID,18.5914,VALID,124,VALID,0.738281,
2011-10-21, 03:17:04,VALID,915.937,VALID,0,VALID,97.7703,VALID,0,VALID,18.5914,VALID,124,VALID,0.804297,
2011-10-21, 03:18:04,VALID,915.933,VALID,0,VALID,97.7703,VALID,0,VALID,18.6124,VALID,124,VALID,0.269922,
2011-10-21, 03:19:04,VALID,915.934,VALID,0,VALID,97.7627,VALID,0,VALID,18.6124,VALID,124,VALID,0.662109,
2011-10-21, 03:20:04,VALID,915.928,VALID,0,VALID,97.7627,VALID,0,VALID,18.5914,VALID,124,VALID,0.589844,
2011-10-21, 03:21:04,VALID,915.946,VALID,0,VALID,97.7551,VALID,0,VALID,18.5914,VALID,124,VALID,0.263672,
2011-10-21, 03:22:04,VALID,915.947,VALID,0,VALID,97.7779,VALID,0,VALID,18.5914,VALID,124,VALID,0.257031,
2011-10-21, 03:23:04,VALID,915.914,VALID,0,VALID,97.7932,VALID,0,VALID,18.572,VALID,124,VALID,0.622656,
2011-10-21, 03:24:04,VALID,915.937,VALID,0,VALID,97.7703,VALID,0,VALID,18.5734,VALID,124,VALID,0.198437,
2011-10-21, 03:25:04,VALID,915.946,VALID,0,VALID,97.7703,VALID,0,VALID,18.6124,VALID,124,VALID,0.00976563,
2011-10-21, 03:26:04,VALID,915.942,VALID,0,VALID,97.7779,VALID,0,VALID,18.572,VALID,124,VALID,0.394922,
2011-10-21, 03:27:04,VALID,915.944,VALID,0,VALID,97.7856,VALID,0,VALID,18.5929,VALID,124,VALID,0.460547,
2011-10-21, 03:28:04,VALID,915.917,VALID,0,VALID,97.7932,VALID,0,VALID,18.5734,VALID,124,VALID,0.367969,
2011-10-21, 03:29:04,VALID,915.9,VALID,0,VALID,97.7856,VALID,0,VALID,18.533,VALID,124,VALID,0.39375,
2011-10-21, 03:30:04,VALID,915.93,VALID,0,VALID,97.7932,VALID,0,VALID,18.5734,VALID,124,VALID,0.223438,
2011-10-21, 03:31:04,VALID,915.939,VALID,0.2,VALID,97.7779,VALID,0,VALID,18.5525,VALID,124,VALID,0.115625,
2011-10-21, 03:32:04,VALID,915.951,VALID,0,VALID,97.8008,VALID,0,VALID,18.5734,VALID,124,VALID,0.135547,
2011-10-21, 03:33:04,VALID,915.937,VALID,0,VALID,97.7779,VALID,0,VALID,18.533,VALID,124,VALID,0.0210938,
2011-10-21, 03:34:04,VALID,915.931,VALID,0,VALID,97.7856,VALID,0,VALID,18.5539,VALID,124,VALID,0.483984,
2011-10-21, 03:35:04,VALID,915.929,VALID,0,VALID,97.8008,VALID,0,VALID,18.533,VALID,124,VALID,0.391016,
2011-10-21, 03:36:04,VALID,915.921,VALID,0,VALID,97.7932,VALID,0,VALID,18.5135,VALID,124,VALID,0.455859,
2011-10-21, 03:37:04,VALID,915.945,VALID,0,VALID,97.7932,VALID,0,VALID,18.5135,VALID,124,VALID,0.287109,
2011-10-21, 03:38:04,VALID,915.922,VALID,0,VALID,97.8008,VALID,0,VALID,18.533,VALID,124,VALID,0.404297,
2011-10-21, 03:39:04,VALID,915.957,VALID,0,VALID,97.7856,VALID,0,VALID,18.533,VALID,124,VALID,0.491797,
2011-10-21, 03:40:04,VALID,915.959,VALID,0,VALID,97.8084,VALID,0,VALID,18.5525,VALID,125,VALID,0.432422,
2011-10-21, 03:41:04,VALID,915.979,VALID,0.2,VALID,97.816,VALID,0,VALID,18.5525,VALID,125,VALID,0.0949219,
2011-10-21, 03:42:04,VALID,915.956,VALID,0,VALID,97.7932,VALID,0,VALID,18.572,VALID,125,VALID,0.979688,
2011-10-21, 03:43:04,VALID,915.975,VALID,0,VALID,97.8008,VALID,0,VALID,18.5525,VALID,150,VALID,1.00742,